Time,TemperatureF,DewpointF,PressureIn,WindDirection,WindDirectionDegrees,WindSpeedMPH,WindSpeedGustMPH,Humidity,HourlyPrecipIn,Conditions,Clouds,dailyrainin,SoftwareType,DateUTC
2013-04-30 00:03:00,67.6,54.1,29.89,South,180,2.7,4.0,62,0.00,,,0.00,WUHU21623XXSP,2013-04-30 05:03:00,
2013-04-30 00:08:00,67.8,53.9,29.88,South,180,0.0,2.9,61,0.00,,,0.00,WUHU21623XXSP,2013-04-30 05:08:00,
2013-04-30 00:13:00,68.4,54.4,29.88,South,180,0.0,2.9,61,0.00,,,0.00,WUHU21623XXSP,2013-04-30 05:13:00,
2013-04-30 00:18:00,68.5,54.1,29.88,SSE,157,0.0,0.7,60,0.00,,,0.00,WUHU21623XXSP,2013-04-30 05:18:00,
2013-04-30 00:23:00,68.5,54.1,29.89,South,180,0.0,0.7,60,0.00,,,0.00,WUHU21623XXSP,2013-04-30 05:23:00,
2013-04-30 00:28:00,68.7,53.8,29.89,SSE,157,3.8,8.1,59,0.00,,,0.00,WUHU21623XXSP,2013-04-30 05:28:00,
2013-04-30 00:33:00,68.7,53.8,29.89,South,180,0.0,8.1,59,0.00,,,0.00,WUHU21623XXSP,2013-04-30 05:33:00,
2013-04-30 00:38:00,68.7,53.8,29.89,South,180,0.0,3.8,59,0.00,,,0.00,WUHU21623XXSP,2013-04-30 05:38:00,
2013-04-30 00:43:00,68.4,53.5,29.88,South,180,0.0,0.0,59,0.00,,,0.00,WUHU21623XXSP,2013-04-30 05:43:00,
2013-04-30 00:48:00,68.4,54.0,29.88,South,180,0.0,1.3,60,0.00,,,0.00,WUHU21623XXSP,2013-04-30 05:48:00,
2013-04-30 00:53:00,68.2,53.8,29.88,South,180,0.0,1.3,60,0.00,,,0.00,WUHU21623XXSP,2013-04-30 05:53:00,
2013-04-30 00:58:00,68.0,53.6,29.88,South,180,0.0,0.0,60,0.00,,,0.00,WUHU21623XXSP,2013-04-30 05:58:00,
2013-04-30 01:03:00,68.0,53.6,29.88,South,180,0.0,0.0,60,0.00,,,0.00,WUHU21623XXSP,2013-04-30 06:03:00,
2013-04-30 01:11:00,67.6,53.7,29.89,South,180,0.0,0.0,61,0.00,,,0.00,WUHU21623XXSP,2013-04-30 06:11:00,
2013-04-30 01:16:00,67.6,53.7,29.89,South,180,0.0,0.0,61,0.00,,,0.00,WUHU21623XXSP,2013-04-30 06:16:00,
2013-04-30 01:21:00,67.3,53.4,29.89,South,180,0.0,0.0,61,0.00,,,0.00,WUHU21623XXSP,2013-04-30 06:21:00,
2013-04-30 01:26:00,67.3,53.4,29.89,South,180,0.0,0.0,61,0.00,,,0.00,WUHU21623XXSP,2013-04-30 06:26:00,
2013-04-30 01:31:00,66.9,53.0,29.88,South,180,0.0,0.0,61,0.00,,,0.00,WUHU21623XXSP,2013-04-30 06:31:00,
2013-04-30 01:36:00,66.6,53.1,29.88,South,180,0.0,0.0,62,0.00,,,0.00,WUHU21623XXSP,2013-04-30 06:36:00,
2013-04-30 01:41:00,66.4,53.0,29.88,South,180,0.0,0.0,62,0.00,,,0.00,WUHU21623XXSP,2013-04-30 06:41:00,
2013-04-30 01:46:00,66.4,53.0,29.88,South,180,0.0,0.0,62,0.00,,,0.00,WUHU21623XXSP,2013-04-30 06:46:00,
2013-04-30 01:51:00,66.0,53.0,29.88,South,180,0.0,0.0,63,0.00,,,0.00,WUHU21623XXSP,2013-04-30 06:51:00,
2013-04-30 01:56:00,66.0,53.0,29.88,South,180,0.0,0.0,63,0.00,,,0.00,WUHU21623XXSP,2013-04-30 06:56:00,
2013-04-30 02:01:00,65.8,52.9,29.87,South,180,0.0,0.0,63,0.00,,,0.00,WUHU21623XXSP,2013-04-30 07:01:00,
2013-04-30 02:06:00,65.7,53.3,29.87,South,180,0.0,0.0,64,0.00,,,0.00,WUHU21623XXSP,2013-04-30 07:06:00,
2013-04-30 02:11:00,65.7,53.1,29.87,South,180,0.0,0.0,64,0.00,,,0.00,WUHU21623XXSP,2013-04-30 07:11:00,
2013-04-30 02:16:00,65.7,53.1,29.87,South,180,0.0,0.0,64,0.00,,,0.00,WUHU21623XXSP,2013-04-30 07:16:00,
2013-04-30 02:21:00,65.8,53.7,29.87,South,180,0.0,0.0,65,0.00,,,0.00,WUHU21623XXSP,2013-04-30 07:21:00,
2013-04-30 02:26:00,66.0,53.5,29.87,South,180,0.0,0.0,64,0.00,,,0.00,WUHU21623XXSP,2013-04-30 07:26:00,
2013-04-30 02:31:00,66.0,53.5,29.87,South,180,0.0,0.0,64,0.00,,,0.00,WUHU21623XXSP,2013-04-30 07:31:00,
2013-04-30 02:36:00,66.4,53.8,29.87,South,180,0.0,0.0,64,0.00,,,0.00,WUHU21623XXSP,2013-04-30 07:36:00,
2013-04-30 02:41:00,66.4,53.8,29.87,South,180,0.0,0.0,64,0.00,,,0.00,WUHU21623XXSP,2013-04-30 07:41:00,
2013-04-30 02:46:00,66.4,53.8,29.87,South,180,0.0,0.0,64,0.00,,,0.00,WUHU21623XXSP,2013-04-30 07:46:00,
2013-04-30 02:51:00,66.4,53.8,29.87,South,180,0.0,0.0,64,0.00,,,0.00,WUHU21623XXSP,2013-04-30 07:51:00,
2013-04-30 02:56:00,66.4,53.8,29.87,South,180,0.0,0.0,64,0.00,,,0.00,WUHU21623XXSP,2013-04-30 07:56:00,
2013-04-30 03:01:00,66.4,53.8,29.87,SSE,157,0.0,0.0,64,0.00,,,0.00,WUHU21623XXSP,2013-04-30 08:01:00,
2013-04-30 03:06:00,66.2,53.6,29.87,SSE,157,0.0,0.0,64,0.00,,,0.00,WUHU21623XXSP,2013-04-30 08:06:00,
2013-04-30 03:11:00,66.0,53.5,29.87,South,180,0.0,0.0,64,0.00,,,0.00,WUHU21623XXSP,2013-04-30 08:11:00,
2013-04-30 03:16:00,66.0,53.5,29.87,South,180,0.0,0.0,64,0.00,,,0.00,WUHU21623XXSP,2013-04-30 08:16:00,
2013-04-30 03:21:00,66.0,53.5,29.88,South,180,0.0,0.0,64,0.00,,,0.00,WUHU21623XXSP,2013-04-30 08:21:00,
2013-04-30 03:26:00,65.8,53.3,29.88,South,180,0.0,0.0,64,0.00,,,0.00,WUHU21623XXSP,2013-04-30 08:26:00,
2013-04-30 03:31:00,65.5,53.3,29.88,South,180,0.0,0.0,65,0.00,,,0.00,WUHU21623XXSP,2013-04-30 08:31:00,
2013-04-30 03:36:00,65.3,53.2,29.88,South,180,0.0,0.0,65,0.00,,,0.00,WUHU21623XXSP,2013-04-30 08:36:00,
2013-04-30 03:41:00,65.1,53.2,29.88,South,180,0.0,0.0,65,0.00,,,0.00,WUHU21623XXSP,2013-04-30 08:41:00,
2013-04-30 03:46:00,65.1,53.0,29.88,South,180,0.0,0.0,65,0.00,,,0.00,WUHU21623XXSP,2013-04-30 08:46:00,
2013-04-30 03:51:00,64.9,53.3,29.88,South,180,0.0,0.0,66,0.00,,,0.00,WUHU21623XXSP,2013-04-30 08:51:00,
2013-04-30 03:56:00,64.8,53.1,29.88,South,180,0.0,0.0,66,0.00,,,0.00,WUHU21623XXSP,2013-04-30 08:56:00,
2013-04-30 04:01:00,64.6,52.5,29.87,South,180,0.0,0.0,65,0.00,,,0.00,WUHU21623XXSP,2013-04-30 09:01:00,
2013-04-30 04:06:00,64.2,52.6,29.88,South,180,0.0,0.0,66,0.00,,,0.00,WUHU21623XXSP,2013-04-30 09:06:00,
2013-04-30 04:11:00,64.2,53.0,29.87,SSW,202,0.0,0.0,67,0.00,,,0.00,WUHU21623XXSP,2013-04-30 09:11:00,
2013-04-30 04:16:00,64.2,52.6,29.87,South,180,0.0,0.0,66,0.00,,,0.00,WUHU21623XXSP,2013-04-30 09:16:00,
2013-04-30 04:21:00,64.2,53.0,29.87,South,180,0.0,0.0,67,0.00,,,0.00,WUHU21623XXSP,2013-04-30 09:21:00,
2013-04-30 04:26:00,64.2,52.6,29.87,South,180,0.0,0.0,66,0.00,,,0.00,WUHU21623XXSP,2013-04-30 09:26:00,
2013-04-30 04:31:00,64.2,53.0,29.87,South,180,0.0,0.0,67,0.00,,,0.00,WUHU21623XXSP,2013-04-30 09:31:00,
2013-04-30 04:36:00,64.0,52.4,29.88,South,180,0.0,0.0,66,0.00,,,0.00,WUHU21623XXSP,2013-04-30 09:36:00,
2013-04-30 04:41:00,64.0,52.8,29.87,South,180,0.0,0.0,67,0.00,,,0.00,WUHU21623XXSP,2013-04-30 09:41:00,
2013-04-30 04:46:00,64.0,52.8,29.88,South,180,0.0,0.0,67,0.00,,,0.00,WUHU21623XXSP,2013-04-30 09:46:00,
2013-04-30 04:51:00,63.9,52.7,29.88,South,180,0.0,0.0,67,0.00,,,0.00,WUHU21623XXSP,2013-04-30 09:51:00,
2013-04-30 04:56:00,63.7,52.5,29.88,South,180,0.0,0.0,67,0.00,,,0.00,WUHU21623XXSP,2013-04-30 09:56:00,
2013-04-30 05:01:00,63.7,52.5,29.88,South,180,0.0,0.0,67,0.00,,,0.00,WUHU21623XXSP,2013-04-30 10:01:00,
2013-04-30 05:06:00,63.7,52.5,29.88,South,180,0.0,0.0,67,0.00,,,0.00,WUHU21623XXSP,2013-04-30 10:06:00,
2013-04-30 05:11:00,63.7,52.5,29.88,South,180,0.0,0.0,67,0.00,,,0.00,WUHU21623XXSP,2013-04-30 10:11:00,
2013-04-30 05:16:00,63.7,52.5,29.88,South,180,0.0,0.0,67,0.00,,,0.00,WUHU21623XXSP,2013-04-30 10:16:00,
2013-04-30 05:21:00,63.5,52.3,29.88,South,180,0.0,0.0,67,0.00,,,0.00,WUHU21623XXSP,2013-04-30 10:21:00,
2013-04-30 05:26:00,63.3,52.1,29.88,South,180,0.0,0.0,67,0.00,,,0.00,WUHU21623XXSP,2013-04-30 10:26:00,
2013-04-30 05:31:00,63.3,52.1,29.88,South,180,0.0,0.0,67,0.00,,,0.00,WUHU21623XXSP,2013-04-30 10:31:00,
2013-04-30 05:36:00,63.3,52.1,29.88,South,180,0.0,0.0,67,0.00,,,0.00,WUHU21623XXSP,2013-04-30 10:36:00,
2013-04-30 05:41:00,63.0,52.0,29.88,South,180,0.0,0.0,68,0.00,,,0.00,WUHU21623XXSP,2013-04-30 10:41:00,
2013-04-30 05:46:00,62.4,52.0,29.89,South,180,0.0,0.0,68,0.00,,,0.00,WUHU21623XXSP,2013-04-30 10:46:00,
2013-04-30 05:51:00,61.7,51.2,29.89,South,180,0.0,0.0,69,0.00,,,0.00,WUHU21623XXSP,2013-04-30 10:51:00,
2013-04-30 05:56:00,61.5,51.3,29.89,South,180,0.0,0.0,69,0.00,,,0.00,WUHU21623XXSP,2013-04-30 10:56:00,
2013-04-30 06:01:00,61.2,51.0,29.89,South,180,0.0,0.0,69,0.00,,,0.00,WUHU21623XXSP,2013-04-30 11:01:00,
2013-04-30 06:06:00,60.4,50.3,29.89,South,180,0.0,0.0,69,0.00,,,0.00,WUHU21623XXSP,2013-04-30 11:06:00,
2013-04-30 06:11:00,60.1,50.4,29.90,South,180,0.0,0.0,70,0.00,,,0.00,WUHU21623XXSP,2013-04-30 11:11:00,
2013-04-30 06:16:00,59.5,49.8,29.90,South,180,0.0,0.0,70,0.00,,,0.00,WUHU21623XXSP,2013-04-30 11:16:00,
2013-04-30 06:21:00,58.8,49.8,29.90,South,180,0.0,0.0,72,0.00,,,0.00,WUHU21623XXSP,2013-04-30 11:21:00,
2013-04-30 06:26:00,58.3,49.6,29.90,South,180,0.0,0.0,73,0.00,,,0.00,WUHU21623XXSP,2013-04-30 11:26:00,
2013-04-30 06:31:00,57.9,49.6,29.91,South,180,0.0,0.0,74,0.00,,,0.00,WUHU21623XXSP,2013-04-30 11:31:00,
2013-04-30 06:36:00,57.4,49.1,29.91,South,180,0.0,0.0,74,0.00,,,0.00,WUHU21623XXSP,2013-04-30 11:36:00,
2013-04-30 06:41:00,57.0,49.1,29.91,South,180,0.0,0.0,74,0.00,,,0.00,WUHU21623XXSP,2013-04-30 11:41:00,
2013-04-30 06:46:00,57.0,48.7,29.91,South,180,0.0,0.0,74,0.00,,,0.00,WUHU21623XXSP,2013-04-30 11:46:00,
2013-04-30 06:51:00,56.5,48.6,29.91,South,180,0.0,0.0,75,0.00,,,0.00,WUHU21623XXSP,2013-04-30 11:51:00,
2013-04-30 06:56:00,56.5,48.6,29.92,South,180,0.0,0.0,75,0.00,,,0.00,WUHU21623XXSP,2013-04-30 11:56:00,
2013-04-30 07:01:00,56.3,48.4,29.92,South,180,0.0,0.0,75,0.00,,,0.00,WUHU21623XXSP,2013-04-30 12:01:00,
2013-04-30 07:06:00,56.1,48.3,29.92,South,180,0.0,0.0,75,0.00,,,0.00,WUHU21623XXSP,2013-04-30 12:06:00,
2013-04-30 07:11:00,56.1,48.3,29.92,South,180,0.0,0.0,76,0.00,,,0.00,WUHU21623XXSP,2013-04-30 12:11:00,
2013-04-30 07:16:00,56.1,48.6,29.92,South,180,0.0,0.0,76,0.00,,,0.00,WUHU21623XXSP,2013-04-30 12:16:00,
2013-04-30 07:21:00,56.8,49.3,29.92,South,180,0.0,0.0,76,0.00,,,0.00,WUHU21623XXSP,2013-04-30 12:21:00,
2013-04-30 07:26:00,57.6,50.4,29.92,South,180,0.0,0.0,77,0.00,,,0.00,WUHU21623XXSP,2013-04-30 12:26:00,
2013-04-30 07:31:00,59.2,51.6,29.93,South,180,0.0,0.0,77,0.00,,,0.00,WUHU21623XXSP,2013-04-30 12:31:00,
2013-04-30 07:36:00,59.9,52.3,29.92,South,180,0.0,0.0,77,0.00,,,0.00,WUHU21623XXSP,2013-04-30 12:36:00,
2013-04-30 07:41:00,60.4,52.9,29.92,South,180,0.0,0.0,76,0.00,,,0.00,WUHU21623XXSP,2013-04-30 12:41:00,
2013-04-30 07:46:00,60.8,53.2,29.93,South,180,0.0,0.0,76,0.00,,,0.00,WUHU21623XXSP,2013-04-30 12:46:00,
2013-04-30 07:51:00,61.3,53.7,29.93,South,180,0.0,0.0,76,0.00,,,0.00,WUHU21623XXSP,2013-04-30 12:51:00,
2013-04-30 07:56:00,61.5,53.5,29.92,South,180,0.0,0.0,75,0.00,,,0.00,WUHU21623XXSP,2013-04-30 12:56:00,
2013-04-30 08:01:00,62.4,54.2,29.92,South,180,0.0,0.0,75,0.00,,,0.00,WUHU21623XXSP,2013-04-30 13:01:00,
2013-04-30 08:06:00,63.0,54.5,29.93,South,180,0.0,0.0,74,0.00,,,0.00,WUHU21623XXSP,2013-04-30 13:06:00,
2013-04-30 08:11:00,63.3,54.5,29.92,South,180,0.0,0.0,73,0.00,,,0.00,WUHU21623XXSP,2013-04-30 13:11:00,
2013-04-30 08:16:00,64.2,55.0,29.93,South,180,0.0,0.0,72,0.00,,,0.00,WUHU21623XXSP,2013-04-30 13:16:00,
2013-04-30 08:21:00,64.8,55.2,29.93,South,180,0.0,0.0,71,0.00,,,0.00,WUHU21623XXSP,2013-04-30 13:21:00,
2013-04-30 08:26:00,65.1,55.1,29.93,South,180,0.0,0.0,70,0.00,,,0.00,WUHU21623XXSP,2013-04-30 13:26:00,
2013-04-30 08:31:00,66.0,56.0,29.93,South,180,0.0,0.0,70,0.00,,,0.00,WUHU21623XXSP,2013-04-30 13:31:00,
2013-04-30 08:36:00,66.4,55.9,29.93,South,180,0.0,0.0,68,0.00,,,0.00,WUHU21623XXSP,2013-04-30 13:36:00,
2013-04-30 08:41:00,66.9,55.6,29.93,SSW,202,0.0,0.0,67,0.00,,,0.00,WUHU21623XXSP,2013-04-30 13:41:00,
2013-04-30 08:46:00,67.6,55.8,29.94,SSW,202,0.0,0.0,66,0.00,,,0.00,WUHU21623XXSP,2013-04-30 13:46:00,
2013-04-30 08:51:00,67.8,56.0,29.93,SSW,202,0.0,0.0,65,0.00,,,0.00,WUHU21623XXSP,2013-04-30 13:51:00,
2013-04-30 08:56:00,68.4,55.7,29.93,SSW,202,0.0,0.0,64,0.00,,,0.00,WUHU21623XXSP,2013-04-30 13:56:00,
2013-04-30 09:01:00,68.7,56.0,29.94,South,180,0.0,0.0,64,0.00,,,0.00,WUHU21623XXSP,2013-04-30 14:01:00,
2013-04-30 09:06:00,69.1,55.9,29.93,SSW,202,0.0,0.0,63,0.00,,,0.00,WUHU21623XXSP,2013-04-30 14:06:00,
2013-04-30 09:11:00,69.6,56.5,29.93,South,180,0.0,0.0,63,0.00,,,0.00,WUHU21623XXSP,2013-04-30 14:11:00,
2013-04-30 09:16:00,70.2,56.6,29.93,SSW,202,0.0,0.0,62,0.00,,,0.00,WUHU21623XXSP,2013-04-30 14:16:00,
2013-04-30 09:21:00,70.3,56.7,29.93,SSE,157,0.0,0.0,62,0.00,,,0.00,WUHU21623XXSP,2013-04-30 14:21:00,
2013-04-30 09:26:00,70.7,56.5,29.93,SSW,202,0.0,0.0,61,0.00,,,0.00,WUHU21623XXSP,2013-04-30 14:26:00,
2013-04-30 09:31:00,70.9,56.4,29.94,South,180,0.0,0.0,60,0.00,,,0.00,WUHU21623XXSP,2013-04-30 14:31:00,
2013-04-30 09:36:00,71.2,56.7,29.93,SSE,157,5.6,5.6,60,0.00,,,0.00,WUHU21623XXSP,2013-04-30 14:36:00,
2013-04-30 09:41:00,71.4,56.4,29.93,SSW,202,0.7,5.6,59,0.00,,,0.00,WUHU21623XXSP,2013-04-30 14:41:00,
2013-04-30 09:46:00,72.0,56.8,29.93,SSE,157,0.0,1.3,59,0.00,,,0.00,WUHU21623XXSP,2013-04-30 14:46:00,
2013-04-30 09:51:00,72.3,56.5,29.93,SSE,157,0.0,1.3,57,0.00,,,0.00,WUHU21623XXSP,2013-04-30 14:51:00,
2013-04-30 09:56:00,72.3,56.2,29.93,South,180,0.0,0.0,57,0.00,,,0.00,WUHU21623XXSP,2013-04-30 14:56:00,
2013-04-30 10:01:00,72.7,56.0,29.93,SSW,202,5.8,5.8,56,0.00,,,0.00,WUHU21623XXSP,2013-04-30 15:01:00,
2013-04-30 10:06:00,72.7,56.0,29.93,SW,225,6.9,6.9,56,0.00,,,0.00,WUHU21623XXSP,2013-04-30 15:06:00,
2013-04-30 10:11:00,73.0,55.8,29.93,SSW,202,0.0,6.9,55,0.00,,,0.00,WUHU21623XXSP,2013-04-30 15:11:00,
2013-04-30 10:16:00,73.2,55.5,29.93,SSE,157,0.0,11.0,54,0.00,,,0.00,WUHU21623XXSP,2013-04-30 15:16:00,
2013-04-30 10:21:00,73.6,55.5,29.93,SW,225,2.5,11.0,54,0.00,,,0.00,WUHU21623XXSP,2013-04-30 15:21:00,
2013-04-30 10:26:00,73.6,55.8,29.93,South,180,0.2,2.5,53,0.00,,,0.00,WUHU21623XXSP,2013-04-30 15:26:00,
2013-04-30 10:31:00,73.9,55.1,29.93,SSE,157,1.6,1.6,52,0.00,,,0.00,WUHU21623XXSP,2013-04-30 15:31:00,
2013-04-30 10:36:00,74.1,54.8,29.93,South,180,0.0,6.5,51,0.00,,,0.00,WUHU21623XXSP,2013-04-30 15:36:00,
2013-04-30 10:41:00,74.1,54.8,29.93,WSW,247,0.0,6.5,51,0.00,,,0.00,WUHU21623XXSP,2013-04-30 15:41:00,
2013-04-30 10:46:00,74.5,55.2,29.93,South,180,1.1,2.5,51,0.00,,,0.00,WUHU21623XXSP,2013-04-30 15:46:00,
2013-04-30 10:51:00,74.5,55.2,29.93,South,180,0.0,7.4,51,0.00,,,0.00,WUHU21623XXSP,2013-04-30 15:51:00,
2013-04-30 10:56:00,74.8,55.0,29.93,SW,225,1.1,7.4,50,0.00,,,0.00,WUHU21623XXSP,2013-04-30 15:56:00,
2013-04-30 11:01:00,75.2,54.8,29.93,SSE,157,1.1,1.1,49,0.00,,,0.00,WUHU21623XXSP,2013-04-30 16:01:00,
2013-04-30 11:06:00,75.4,55.0,29.93,South,180,2.7,2.7,49,0.00,,,0.00,WUHU21623XXSP,2013-04-30 16:06:00,
2013-04-30 11:11:00,75.6,55.1,29.93,South,180,5.4,5.4,49,0.00,,,0.00,WUHU21623XXSP,2013-04-30 16:11:00,
2013-04-30 11:16:00,75.9,54.2,29.93,WSW,247,0.0,5.4,47,0.00,,,0.00,WUHU21623XXSP,2013-04-30 16:16:00,
2013-04-30 11:21:00,76.1,54.4,29.93,WSW,247,0.0,3.1,47,0.00,,,0.00,WUHU21623XXSP,2013-04-30 16:21:00,
2013-04-30 11:26:00,76.3,53.9,29.93,South,180,1.1,3.1,46,0.00,,,0.00,WUHU21623XXSP,2013-04-30 16:26:00,
2013-04-30 11:31:00,76.6,53.6,29.93,South,180,0.0,4.3,45,0.00,,,0.00,WUHU21623XXSP,2013-04-30 16:31:00,
2013-04-30 11:36:00,76.6,53.6,29.92,SW,225,4.3,6.0,45,0.00,,,0.00,WUHU21623XXSP,2013-04-30 16:36:00,
2013-04-30 11:41:00,76.8,53.8,29.92,SSE,157,8.3,8.3,45,0.00,,,0.00,WUHU21623XXSP,2013-04-30 16:41:00,
2013-04-30 11:46:00,77.0,53.3,29.92,SSE,157,0.0,8.3,44,0.00,,,0.00,WUHU21623XXSP,2013-04-30 16:46:00,
2013-04-30 11:51:00,77.2,53.5,29.92,WSW,247,3.8,5.1,44,0.00,,,0.00,WUHU21623XXSP,2013-04-30 16:51:00,
2013-04-30 11:56:00,77.5,53.8,29.92,SSE,157,1.1,3.8,44,0.00,,,0.00,WUHU21623XXSP,2013-04-30 16:56:00,
2013-04-30 12:01:00,77.9,53.5,29.92,SSE,157,5.6,5.6,43,0.00,,,0.00,WUHU21623XXSP,2013-04-30 17:01:00,
2013-04-30 12:06:00,78.4,54.0,29.92,SSE,157,0.0,5.6,43,0.00,,,0.00,WUHU21623XXSP,2013-04-30 17:06:00,
2013-04-30 12:11:00,78.6,52.4,29.92,South,180,4.3,4.3,40,0.00,,,0.00,WUHU21623XXSP,2013-04-30 17:11:00,
2013-04-30 12:16:00,78.6,50.8,29.91,SSW,202,1.1,4.3,38,0.00,,,0.00,WUHU21623XXSP,2013-04-30 17:16:00,
2013-04-30 12:21:00,79.0,49.6,29.92,SSE,157,0.9,2.0,36,0.00,,,0.00,WUHU21623XXSP,2013-04-30 17:21:00,
2013-04-30 12:26:00,79.2,49.7,29.91,South,180,9.8,9.8,36,0.00,,,0.00,WUHU21623XXSP,2013-04-30 17:26:00,
2013-04-30 12:31:00,79.9,50.4,29.90,South,180,2.7,9.8,36,0.00,,,0.00,WUHU21623XXSP,2013-04-30 17:31:00,
2013-04-30 12:36:00,80.2,49.9,29.90,South,180,5.4,6.3,35,0.00,,,0.00,WUHU21623XXSP,2013-04-30 17:36:00,
2013-04-30 12:41:00,80.4,49.3,29.90,South,180,0.0,7.6,34,0.00,,,0.00,WUHU21623XXSP,2013-04-30 17:41:00,
2013-04-30 12:46:00,81.1,49.9,29.90,SSW,202,6.9,7.6,34,0.00,,,0.00,WUHU21623XXSP,2013-04-30 17:46:00,
2013-04-30 12:51:00,81.3,50.1,29.90,SSE,157,3.8,6.9,34,0.00,,,0.00,WUHU21623XXSP,2013-04-30 17:51:00,
2013-04-30 12:56:00,81.7,50.4,29.90,SSE,157,0.0,3.8,34,0.00,,,0.00,WUHU21623XXSP,2013-04-30 17:56:00,
2013-04-30 13:01:00,82.2,50.8,29.90,South,180,4.3,5.6,34,0.00,,,0.00,WUHU21623XXSP,2013-04-30 18:01:00,
2013-04-30 13:06:00,82.2,50.1,29.90,SE,135,2.5,5.6,33,0.00,,,0.00,WUHU21623XXSP,2013-04-30 18:06:00,
2013-04-30 13:11:00,82.2,50.1,29.90,SW,225,0.7,3.1,33,0.00,,,0.00,WUHU21623XXSP,2013-04-30 18:11:00,
2013-04-30 13:16:00,82.8,51.3,29.89,SW,225,2.2,4.3,34,0.00,,,0.00,WUHU21623XXSP,2013-04-30 18:16:00,
2013-04-30 13:21:00,83.3,51.7,29.90,SSE,157,3.1,4.3,33,0.00,,,0.00,WUHU21623XXSP,2013-04-30 18:21:00,
2013-04-30 13:26:00,83.5,51.2,29.90,SSE,157,8.5,11.4,33,0.00,,,0.00,WUHU21623XXSP,2013-04-30 18:26:00,
2013-04-30 13:31:00,83.3,51.8,29.90,SSE,157,0.0,11.4,34,0.00,,,0.00,WUHU21623XXSP,2013-04-30 18:31:00,
2013-04-30 13:36:00,83.3,51.8,29.90,SSE,157,2.2,8.5,34,0.00,,,0.00,WUHU21623XXSP,2013-04-30 18:36:00,
2013-04-30 13:41:00,83.3,51.8,29.90,South,180,5.4,5.4,34,0.00,,,0.00,WUHU21623XXSP,2013-04-30 18:41:00,
2013-04-30 13:46:00,83.3,51.8,29.90,South,180,8.3,8.3,34,0.00,,,0.00,WUHU21623XXSP,2013-04-30 18:46:00,
2013-04-30 13:51:00,83.3,51.8,29.90,SSE,157,0.0,8.3,34,0.00,,,0.00,WUHU21623XXSP,2013-04-30 18:51:00,
2013-04-30 13:56:00,83.7,52.1,29.90,SSE,157,6.0,6.0,34,0.00,,,0.00,WUHU21623XXSP,2013-04-30 18:56:00,
2013-04-30 14:01:00,83.8,53.1,29.90,SSE,157,0.0,6.0,34,0.00,,,0.00,WUHU21623XXSP,2013-04-30 19:01:00,
2013-04-30 14:06:00,83.8,53.1,29.89,South,180,7.6,7.6,35,0.00,,,0.00,WUHU21623XXSP,2013-04-30 19:06:00,
2013-04-30 14:11:00,83.8,52.3,29.89,South,180,5.1,7.6,35,0.00,,,0.00,WUHU21623XXSP,2013-04-30 19:11:00,
2013-04-30 14:16:00,83.8,53.1,29.89,South,180,8.9,8.9,35,0.00,,,0.00,WUHU21623XXSP,2013-04-30 19:16:00,
2013-04-30 14:21:00,83.8,53.1,29.89,SSE,157,2.5,8.9,35,0.00,,,0.00,WUHU21623XXSP,2013-04-30 19:21:00,
2013-04-30 14:26:00,84.0,53.3,29.89,SSE,157,3.6,6.5,35,0.00,,,0.00,WUHU21623XXSP,2013-04-30 19:26:00,
2013-04-30 14:31:00,83.8,53.9,29.89,South,180,2.5,6.5,36,0.00,,,0.00,WUHU21623XXSP,2013-04-30 19:31:00,
2013-04-30 14:36:00,83.8,53.1,29.89,South,180,6.9,6.9,35,0.00,,,0.00,WUHU21623XXSP,2013-04-30 19:36:00,
2013-04-30 14:41:00,83.8,53.9,29.90,South,180,0.0,6.9,36,0.00,,,0.00,WUHU21623XXSP,2013-04-30 19:41:00,
2013-04-30 14:46:00,84.0,53.3,29.89,South,180,12.5,12.5,35,0.00,,,0.00,WUHU21623XXSP,2013-04-30 19:46:00,
2013-04-30 14:51:00,84.0,53.3,29.89,South,180,2.0,12.5,35,0.00,,,0.00,WUHU21623XXSP,2013-04-30 19:51:00,
2013-04-30 14:56:00,84.0,53.3,29.89,SSW,202,0.0,4.5,35,0.00,,,0.00,WUHU21623XXSP,2013-04-30 19:56:00,
2013-04-30 15:01:00,83.8,53.1,29.89,SSE,157,3.6,6.7,35,0.00,,,0.00,WUHU21623XXSP,2013-04-30 20:01:00,
2013-04-30 15:06:00,83.7,52.9,29.89,SSE,157,0.0,12.8,35,0.00,,,0.00,WUHU21623XXSP,2013-04-30 20:06:00,
2013-04-30 15:11:00,83.8,52.9,29.89,South,180,4.9,12.8,36,0.00,,,0.00,WUHU21623XXSP,2013-04-30 20:11:00,
2013-04-30 15:16:00,83.8,53.1,29.88,SSE,157,0.0,6.0,35,0.00,,,0.00,WUHU21623XXSP,2013-04-30 20:16:00,
2013-04-30 15:21:00,84.0,53.3,29.89,SSW,202,2.5,3.8,35,0.00,,,0.00,WUHU21623XXSP,2013-04-30 20:21:00,
2013-04-30 15:26:00,84.2,53.4,29.88,South,180,0.0,2.5,35,0.00,,,0.00,WUHU21623XXSP,2013-04-30 20:26:00,
2013-04-30 15:31:00,84.4,52.8,29.89,South,180,8.7,8.7,34,0.00,,,0.00,WUHU21623XXSP,2013-04-30 20:31:00,
2013-04-30 15:36:00,84.2,51.8,29.89,SSE,157,4.3,8.7,33,0.00,,,0.00,WUHU21623XXSP,2013-04-30 20:36:00,
2013-04-30 15:41:00,84.0,51.7,29.89,South,180,2.0,9.6,33,0.00,,,0.00,WUHU21623XXSP,2013-04-30 20:41:00,
2013-04-30 15:46:00,84.0,51.7,29.88,SSE,157,4.0,9.6,33,0.00,,,0.00,WUHU21623XXSP,2013-04-30 20:46:00,
2013-04-30 15:51:00,84.0,51.7,29.89,South,180,8.3,8.3,33,0.00,,,0.00,WUHU21623XXSP,2013-04-30 20:51:00,
2013-04-30 15:56:00,84.0,51.7,29.88,South,180,2.2,8.3,33,0.00,,,0.00,WUHU21623XXSP,2013-04-30 20:56:00,
2013-04-30 16:01:00,84.0,51.7,29.87,SE,135,0.0,6.5,33,0.00,,,0.00,WUHU21623XXSP,2013-04-30 21:01:00,
2013-04-30 16:06:00,84.0,50.9,29.87,SSE,157,0.0,0.9,32,0.00,,,0.00,WUHU21623XXSP,2013-04-30 21:06:00,
2013-04-30 16:11:00,83.8,51.5,29.87,SW,225,1.3,1.3,33,0.00,,,0.00,WUHU21623XXSP,2013-04-30 21:11:00,
2013-04-30 16:16:00,83.8,51.5,29.87,WSW,247,9.2,9.2,33,0.00,,,0.00,WUHU21623XXSP,2013-04-30 21:16:00,
2013-04-30 16:21:00,83.5,51.2,29.87,SE,135,4.3,9.2,33,0.00,,,0.00,WUHU21623XXSP,2013-04-30 21:21:00,
2013-04-30 16:26:00,83.1,50.9,29.87,SSE,157,16.3,16.3,33,0.00,,,0.00,WUHU21623XXSP,2013-04-30 21:26:00,
2013-04-30 16:31:00,83.1,50.9,29.87,SSE,157,1.3,16.3,33,0.00,,,0.00,WUHU21623XXSP,2013-04-30 21:31:00,
2013-04-30 16:36:00,83.1,50.9,29.87,SSE,157,2.9,6.7,33,0.00,,,0.00,WUHU21623XXSP,2013-04-30 21:36:00,
2013-04-30 16:41:00,82.9,50.7,29.87,SSE,157,0.0,6.7,33,0.00,,,0.00,WUHU21623XXSP,2013-04-30 21:41:00,
2013-04-30 16:46:00,82.9,50.7,29.87,WSW,247,6.0,6.5,33,0.00,,,0.00,WUHU21623XXSP,2013-04-30 21:46:00,
2013-04-30 16:52:00,82.8,50.5,29.87,South,180,0.9,6.5,33,0.00,,,0.00,WUHU21623XXSP,2013-04-30 21:52:00,
2013-04-30 16:57:00,82.6,50.4,29.87,SSE,157,2.7,3.1,33,0.00,,,0.00,WUHU21623XXSP,2013-04-30 21:57:00,
2013-04-30 17:02:00,82.4,50.2,29.87,SSE,157,0.0,3.1,33,0.00,,,0.00,WUHU21623XXSP,2013-04-30 22:02:00,
2013-04-30 17:07:00,82.2,50.1,29.87,South,180,3.4,5.1,33,0.00,,,0.00,WUHU21623XXSP,2013-04-30 22:07:00,
2013-04-30 17:12:00,82.2,50.8,29.87,SSE,157,0.0,5.1,34,0.00,,,0.00,WUHU21623XXSP,2013-04-30 22:12:00,
2013-04-30 17:17:00,82.0,49.9,29.87,SSE,157,0.0,0.0,33,0.00,,,0.00,WUHU21623XXSP,2013-04-30 22:17:00,
2013-04-30 17:22:00,81.7,49.6,29.87,SSE,157,0.0,6.5,33,0.00,,,0.00,WUHU21623XXSP,2013-04-30 22:22:00,
2013-04-30 17:27:00,81.3,49.3,29.87,SSE,157,6.5,6.5,33,0.00,,,0.00,WUHU21623XXSP,2013-04-30 22:27:00,
2013-04-30 17:32:00,81.1,49.9,29.87,South,180,4.5,6.5,34,0.00,,,0.00,WUHU21623XXSP,2013-04-30 22:32:00,
2013-04-30 17:37:00,81.0,48.2,29.87,SSE,157,0.0,9.8,32,0.00,,,0.00,WUHU21623XXSP,2013-04-30 22:37:00,
2013-04-30 17:42:00,80.8,48.1,29.87,SE,135,0.0,9.8,32,0.00,,,0.00,WUHU21623XXSP,2013-04-30 22:42:00,
2013-04-30 17:47:00,80.6,47.9,29.87,SSE,157,0.0,0.0,32,0.00,,,0.00,WUHU21623XXSP,2013-04-30 22:47:00,
2013-04-30 17:52:00,80.4,47.8,29.87,South,180,2.5,2.5,32,0.00,,,0.00,WUHU21623XXSP,2013-04-30 22:52:00,
2013-04-30 17:57:00,80.2,47.6,29.87,SSE,157,6.5,6.5,32,0.00,,,0.00,WUHU21623XXSP,2013-04-30 22:57:00,
2013-04-30 18:02:00,80.2,47.6,29.87,South,180,0.0,6.5,32,0.00,,,0.00,WUHU21623XXSP,2013-04-30 23:02:00,
2013-04-30 18:07:00,80.1,49.0,29.87,South,180,3.8,3.8,34,0.00,,,0.00,WUHU21623XXSP,2013-04-30 23:07:00,
2013-04-30 18:12:00,79.9,47.3,29.88,South,180,0.0,3.8,32,0.00,,,0.00,WUHU21623XXSP,2013-04-30 23:12:00,
2013-04-30 18:17:00,79.9,47.3,29.88,SSE,157,0.0,0.0,32,0.00,,,0.00,WUHU21623XXSP,2013-04-30 23:17:00,
2013-04-30 18:22:00,79.7,47.1,29.88,WSW,247,0.0,9.6,32,0.00,,,0.00,WUHU21623XXSP,2013-04-30 23:22:00,
2013-04-30 18:27:00,79.5,47.0,29.88,SSE,157,0.0,11.0,32,0.00,,,0.00,WUHU21623XXSP,2013-04-30 23:27:00,
2013-04-30 18:32:00,79.3,47.6,29.88,South,180,0.0,11.0,33,0.00,,,0.00,WUHU21623XXSP,2013-04-30 23:32:00,
2013-04-30 18:37:00,79.2,48.2,29.87,South,180,0.0,0.9,34,0.00,,,0.00,WUHU21623XXSP,2013-04-30 23:37:00,
2013-04-30 18:42:00,79.0,48.8,29.88,South,180,0.0,3.4,35,0.00,,,0.00,WUHU21623XXSP,2013-04-30 23:42:00,
2013-04-30 18:47:00,78.6,48.5,29.88,South,180,0.0,3.4,35,0.00,,,0.00,WUHU21623XXSP,2013-04-30 23:47:00,
2013-04-30 18:52:00,78.6,48.5,29.87,South,180,0.0,0.0,35,0.00,,,0.00,WUHU21623XXSP,2013-04-30 23:52:00,
2013-04-30 18:57:00,78.4,48.3,29.87,South,180,0.0,0.0,35,0.00,,,0.00,WUHU21623XXSP,2013-04-30 23:57:00,
2013-04-30 19:02:00,78.3,48.2,29.88,South,180,0.0,0.0,35,0.00,,,0.00,WUHU21623XXSP,2013-05-01 00:02:00,
2013-04-30 19:07:00,77.9,47.9,29.88,South,180,0.0,2.7,35,0.00,,,0.00,WUHU21623XXSP,2013-05-01 00:07:00,
2013-04-30 19:12:00,77.7,48.5,29.88,South,180,0.0,2.7,36,0.00,,,0.00,WUHU21623XXSP,2013-05-01 00:12:00,
2013-04-30 19:17:00,77.5,48.3,29.88,South,180,0.0,0.0,36,0.00,,,0.00,WUHU21623XXSP,2013-05-01 00:17:00,
2013-04-30 19:22:00,77.0,47.9,29.88,SSW,202,0.0,0.0,36,0.00,,,0.00,WUHU21623XXSP,2013-05-01 00:22:00,
2013-04-30 19:27:00,76.8,48.5,29.87,South,180,0.0,0.0,37,0.00,,,0.00,WUHU21623XXSP,2013-05-01 00:27:00,
2013-04-30 19:32:00,76.6,48.3,29.88,South,180,0.0,0.0,37,0.00,,,0.00,WUHU21623XXSP,2013-05-01 00:32:00,
2013-04-30 19:37:00,76.1,47.8,29.88,South,180,0.0,0.0,37,0.00,,,0.00,WUHU21623XXSP,2013-05-01 00:37:00,
2013-04-30 19:42:00,75.9,47.7,29.88,South,180,0.0,0.0,37,0.00,,,0.00,WUHU21623XXSP,2013-05-01 00:42:00,
2013-04-30 19:47:00,75.6,47.3,29.88,SSE,157,0.0,0.0,37,0.00,,,0.00,WUHU21623XXSP,2013-05-01 00:47:00,
2013-04-30 19:52:00,75.0,47.6,29.88,SSE,157,0.0,0.0,38,0.00,,,0.00,WUHU21623XXSP,2013-05-01 00:52:00,
2013-04-30 19:57:00,74.8,47.4,29.89,SSE,157,0.0,0.0,38,0.00,,,0.00,WUHU21623XXSP,2013-05-01 00:57:00,
2013-04-30 20:02:00,74.5,47.1,29.89,South,180,0.0,0.0,38,0.00,,,0.00,WUHU21623XXSP,2013-05-01 01:02:00,
2013-04-30 20:07:00,73.9,46.6,29.88,South,180,0.0,0.0,38,0.00,,,0.00,WUHU21623XXSP,2013-05-01 01:07:00,
2013-04-30 20:12:00,73.6,47.1,29.89,South,180,0.0,0.0,39,0.00,,,0.00,WUHU21623XXSP,2013-05-01 01:12:00,
2013-04-30 20:17:00,73.2,46.7,29.88,South,180,0.0,0.0,39,0.00,,,0.00,WUHU21623XXSP,2013-05-01 01:17:00,
2013-04-30 20:22:00,72.5,46.1,29.89,South,180,0.0,0.0,39,0.00,,,0.00,WUHU21623XXSP,2013-05-01 01:22:00,
2013-04-30 20:27:00,72.0,45.6,29.89,South,180,0.0,0.0,39,0.00,,,0.00,WUHU21623XXSP,2013-05-01 01:27:00,
2013-04-30 20:32:00,71.4,45.9,29.89,South,180,0.0,0.0,40,0.00,,,0.00,WUHU21623XXSP,2013-05-01 01:32:00,
2013-04-30 20:37:00,70.7,45.8,29.89,South,180,0.0,0.0,41,0.00,,,0.00,WUHU21623XXSP,2013-05-01 01:37:00,
2013-04-30 20:42:00,70.3,45.5,29.89,South,180,0.0,0.0,41,0.00,,,0.00,WUHU21623XXSP,2013-05-01 01:42:00,
2013-04-30 20:47:00,70.0,45.2,29.89,South,180,0.0,0.0,41,0.00,,,0.00,WUHU21623XXSP,2013-05-01 01:47:00,
2013-04-30 20:52:00,69.4,45.3,29.89,South,180,0.0,0.0,42,0.00,,,0.00,WUHU21623XXSP,2013-05-01 01:52:00,
2013-04-30 20:57:00,69.1,45.0,29.90,South,180,0.0,0.0,42,0.00,,,0.00,WUHU21623XXSP,2013-05-01 01:57:00,
2013-04-30 21:02:00,68.9,45.4,29.89,South,180,0.0,0.0,43,0.00,,,0.00,WUHU21623XXSP,2013-05-01 02:02:00,
2013-04-30 21:07:00,68.7,45.2,29.90,South,180,0.0,0.0,43,0.00,,,0.00,WUHU21623XXSP,2013-05-01 02:07:00,
2013-04-30 21:12:00,68.5,45.7,29.90,South,180,0.0,0.0,44,0.00,,,0.00,WUHU21623XXSP,2013-05-01 02:12:00,
2013-04-30 21:17:00,68.2,45.3,29.90,South,180,0.0,0.0,44,0.00,,,0.00,WUHU21623XXSP,2013-05-01 02:17:00,
2013-04-30 21:22:00,68.0,45.8,29.90,South,180,0.0,0.0,45,0.00,,,0.00,WUHU21623XXSP,2013-05-01 02:22:00,
2013-04-30 21:27:00,67.8,45.6,29.89,South,180,0.0,0.0,45,0.00,,,0.00,WUHU21623XXSP,2013-05-01 02:27:00,
2013-04-30 21:32:00,67.6,45.4,29.90,SSE,157,1.1,1.1,45,0.00,,,0.00,WUHU21623XXSP,2013-05-01 02:32:00,
2013-04-30 21:37:00,67.6,46.0,29.90,SSE,157,0.0,1.1,46,0.00,,,0.00,WUHU21623XXSP,2013-05-01 02:37:00,
2013-04-30 21:42:00,67.6,46.0,29.90,SSE,157,0.0,0.0,46,0.00,,,0.00,WUHU21623XXSP,2013-05-01 02:42:00,
2013-04-30 21:47:00,67.3,45.7,29.90,SSE,157,0.0,0.0,46,0.00,,,0.00,WUHU21623XXSP,2013-05-01 02:47:00,
2013-04-30 21:52:00,67.3,46.3,29.90,SSE,157,0.0,0.0,47,0.00,,,0.00,WUHU21623XXSP,2013-05-01 02:52:00,
2013-04-30 21:57:00,67.1,46.1,29.91,SSE,157,0.0,0.0,47,0.00,,,0.00,WUHU21623XXSP,2013-05-01 02:57:00,
2013-04-30 22:02:00,66.9,46.0,29.91,SSE,157,0.0,0.0,47,0.00,,,0.00,WUHU21623XXSP,2013-05-01 03:02:00,
2013-04-30 22:07:00,66.9,46.6,29.91,SSE,157,0.0,0.0,48,0.00,,,0.00,WUHU21623XXSP,2013-05-01 03:07:00,
2013-04-30 22:12:00,66.9,46.6,29.92,SSE,157,0.0,0.0,48,0.00,,,0.00,WUHU21623XXSP,2013-05-01 03:12:00,
2013-04-30 22:17:00,66.9,47.2,29.91,SSE,157,0.0,0.0,49,0.00,,,0.00,WUHU21623XXSP,2013-05-01 03:17:00,
2013-04-30 22:22:00,66.9,47.2,29.92,SSE,157,0.0,0.0,49,0.00,,,0.00,WUHU21623XXSP,2013-05-01 03:22:00,
2013-04-30 22:27:00,66.9,47.2,29.92,SSE,157,0.0,0.0,49,0.00,,,0.00,WUHU21623XXSP,2013-05-01 03:27:00,
2013-04-30 22:32:00,66.9,47.2,29.92,SSE,157,0.0,0.0,49,0.00,,,0.00,WUHU21623XXSP,2013-05-01 03:32:00,
2013-04-30 22:37:00,66.9,47.2,29.92,SSE,157,0.0,0.0,50,0.00,,,0.00,WUHU21623XXSP,2013-05-01 03:37:00,
2013-04-30 22:42:00,66.7,47.6,29.92,SSE,157,0.0,0.0,50,0.00,,,0.00,WUHU21623XXSP,2013-05-01 03:42:00,
2013-04-30 22:47:00,66.6,47.4,29.92,SSE,157,0.0,0.0,50,0.00,,,0.00,WUHU21623XXSP,2013-05-01 03:47:00,
2013-04-30 22:52:00,66.4,47.3,29.92,SSE,157,0.0,0.0,50,0.00,,,0.00,WUHU21623XXSP,2013-05-01 03:52:00,
2013-04-30 22:57:00,66.0,47.1,29.92,SSE,157,0.0,0.0,50,0.00,,,0.00,WUHU21623XXSP,2013-05-01 03:57:00,
2013-04-30 23:02:00,65.8,47.2,29.92,SSE,157,0.0,0.0,51,0.00,,,0.00,WUHU21623XXSP,2013-05-01 04:02:00,
2013-04-30 23:07:00,65.5,47.1,29.92,SSE,157,0.0,0.0,52,0.00,,,0.00,WUHU21623XXSP,2013-05-01 04:07:00,
2013-04-30 23:12:00,65.3,47.7,29.92,SSE,157,0.0,0.0,53,0.00,,,0.00,WUHU21623XXSP,2013-05-01 04:12:00,
2013-04-30 23:17:00,64.9,47.3,29.92,SSE,157,0.0,0.0,53,0.00,,,0.00,WUHU21623XXSP,2013-05-01 04:17:00,
2013-04-30 23:22:00,64.6,47.1,29.92,SSE,157,0.0,0.0,53,0.00,,,0.00,WUHU21623XXSP,2013-05-01 04:22:00,
2013-04-30 23:27:00,64.2,47.1,29.92,SSE,157,0.0,0.0,54,0.00,,,0.00,WUHU21623XXSP,2013-05-01 04:27:00,
2013-04-30 23:32:00,64.0,46.9,29.92,SSE,157,0.0,0.0,54,0.00,,,0.00,WUHU21623XXSP,2013-05-01 04:32:00,
2013-04-30 23:37:00,64.0,46.9,29.92,SSE,157,0.0,0.0,55,0.00,,,0.00,WUHU21623XXSP,2013-05-01 04:37:00,
2013-04-30 23:42:00,63.7,47.6,29.92,SSE,157,0.0,0.0,56,0.00,,,0.00,WUHU21623XXSP,2013-05-01 04:42:00,
2013-04-30 23:47:00,63.3,47.4,29.92,SSE,157,0.0,0.0,56,0.00,,,0.00,WUHU21623XXSP,2013-05-01 04:47:00,
2013-04-30 23:52:00,63.1,47.6,29.93,SSE,157,0.0,0.0,57,0.00,,,0.00,WUHU21623XXSP,2013-05-01 04:52:00,
2013-04-30 23:57:00,63.0,47.9,29.93,SSE,157,0.0,0.0,58,0.00,,,0.00,WUHU21623XXSP,2013-05-01 04:57:00,